Regional Weather Roundup
Issued by NWS

Home | Current Version | Previous Version | Text Only | Print | Product List | Glossary On
Versions: 1 2 3 4 5 6 7 8 9 10 11 12 13 14 15 16 17 18 19 20 21 22 23 24 25 26 27 28 29 30 31 32 33 34 35 36 37 38 39 40 41 42 43 44 45 46 47 48 49 50
000
ASUS43 KMKX 260821
RWRWI

WISCONSIN REGIONAL WEATHER ROUNDUP
NATIONAL WEATHER SERVICE MILWAUKEE/SULLIVAN WI
300 AM CDT THU MAY 26 2016

NOTE: "FAIR" INDICATES FEW OR NO CLOUDS BELOW 12,000 FEET WITH NO
SIGNIFICANT WEATHER AND/OR OBSTRUCTIONS TO VISIBILITY.

WIZ001-002-006>008-014>016-023>028-260900-
NORTHWEST WISCONSIN

CITY           SKY/WX    TMP DP  RH WIND       PRES   REMARKS
SUPERIOR ARPT  CLOUDY    43  43 100 NE9       29.84F FOG
ASHLAND        FOG       48  48 100 CALM      29.84R VSB 1/4
HAYWARD        FOG       53  52  96 CALM      29.83R VSB 1/4
SIREN          CLOUDY    57  56  97 CALM      29.80F FOG
CUMBERLAND     FOG       55  55 100 CALM      29.81S VSB 1/4
RICE LAKE      FOG       58  57  96 CALM      29.83R VSB 1/4
CHETEK         FOG       59  59 100 SE3       29.80S VSB 1/4
LADYSMITH      FOG       59  59  97 CALM      29.84R VSB 1/4
EAU CLAIRE     FOG       57  57 100 N5        29.80R VSB 1/4
MENOMONIE      FOG       61  61 100 CALM      29.80S VSB 1/4
NEW RICHMOND   CLOUDY    62  62 100 S7        29.79S FOG
OSCEOLA        CLOUDY    63  63 100 SE3       29.81R FOG
$$

WIZ003>005-009-010-017-018-260900-
NORTH CENTRAL WISCONSIN

CITY           SKY/WX    TMP DP  RH WIND       PRES   REMARKS
MANITOWISH WTR NOT AVBL
ARBOR VITAE    CLOUDY    62  60  94 W5        29.82S
WOODRUFF       CLOUDY    62  60  94 W5        29.82S
RHINELANDER    CLOUDY    62  59  90 SW12      29.84R
EAGLE RIVER      N/A     61  60  99 SW7       29.82S
LAND O LAKES   CLOUDY    59  59 100 CALM      29.83S FOG
PHILLIPS       CLOUDY    60  60 100 SW3       29.82S
TOMAHAWK       CLOUDY    60  59  95 CALM      29.84S
MEDFORD        FOG       61  61 100 S6        29.83S VSB 1/4
MERRILL        CLOUDY    62  62 100 SW7       29.84F FOG
$$

WIZ029-030-035-036-043>047-260900-
CENTRAL WISCONSIN

CITY           SKY/WX    TMP DP  RH WIND       PRES   REMARKS
WAUSAU         FOG       63  32  31 SW6       29.82S VSB 1/2
MOSINEE        FOG       61  61 100 S5        29.84F VSB 1/4
MARSHFIELD     FOG       63  61  93 SW6       29.82F VSB 1/4
STEVENS POINT  FOG       60  60 100 S5        29.84F VSB 1/4
WAUPACA        FOG       61  60  97 CALM      29.84F VSB 1/4
WAUTOMA        NOT AVBL
WISC RAPIDS    FOG       62  60  93 SW5       29.84F VSB 1/4
CAMP DOUGLAS   FOG       59 N/A N/A NE1       29.82F VSB 1/4
$$

WIZ011>013-019>022-031-037>040-048>050-260900-
NORTHEAST WISCONSIN

CITY           SKY/WX    TMP DP  RH WIND       PRES   REMARKS
ANTIGO         FOG       60  60 100 SW7       29.85S VSB 1
SHAWANO        FOG       62  60  94 CALM      29.84F VSB 1/2
OCONTO         MOCLDY   N/A N/A N/A CALM      29.83F
STURGEON BAY   NOT AVBL
GREEN BAY      CLEAR     60  59  96 S9        29.83F FOG
MANITOWOC      FOG       57  57 100 SE6       29.86F VSB 3/4
APPLETON       FOG       61  61 100 S6        29.83F VSB 3/4
CLINTONVILLE   FOG       61  59  94 SW6       29.83F VSB 1/4
OSHKOSH        CLOUDY    63  62  97 S10       29.84F FOG
$$

WIZ032>034-041-042-053>061-260900-
SOUTHWEST WISCONSIN

CITY           SKY/WX    TMP DP  RH WIND       PRES   REMARKS
LA CROSSE      CLEAR     64  62  93 E3        29.80F
SPARTA         CLEAR     56  56 100 CALM      29.83F
VIROQUA        CLEAR     64  59  84 SE3       29.83F
BOSCOBEL       FOG       59  58  96 CALM      29.82F VSB 1/4
PRAIRIE DU CHI CLOUDY    63  60  91 CALM      29.80F
PLATTEVILLE    PTCLDY    65  60  83 SE7       29.84F
$$

WIZ056-057-062-063-064-067-068-260900-
SOUTH CENTRAL WISCONSIN

CITY           SKY/WX    TMP DP  RH WIND       PRES   REMARKS
REEDSBURG      CLEAR     62  62 100 CALM      29.83F
BARABOO/DELLS  CLEAR     62  61  96 S3        29.83F
LONE ROCK      CLEAR     61  59  93 E3        29.83F
MINERAL POINT  CLOUDY    64  59  82 SE6       29.85F
MADISON        PTCLDY    66  63  90 S6        29.85F
MIDDLETON      PTCLDY    65  62  91 CALM      29.86F
WATERTOWN      CLEAR     63  63 100 CALM      29.87F
MONROE         PTCLDY    63  61  94 S7        29.88F
JANESVILLE     CLEAR     64  64 100 S6        29.88S FOG
$$

WIZ051-052-058>065-066-070>072-260900-
SOUTHEAST WISCONSIN

CITY           SKY/WX    TMP DP  RH WIND       PRES   REMARKS
MILWAUKEE      PTCLDY    62  61  96 SE5       29.89F
WAUKESHA       CLEAR     61  61 100 S7        29.90F FOG
MILWAUKEE/TIMM CLEAR     61  59  94 CALM      29.89F FOG
RACINE         CLEAR     64  61  90 SE6       29.91F
BURLINGTON     CLEAR     61  60  99 S5        29.89F FOG
KENOSHA        CLEAR     65  63  93 S8        29.90F
FOND DU LAC    CLEAR     63  62  97 S9        29.85F FOG
SHEBOYGAN      FOG       59  57  93 S6        29.86F VSB 1
WEST BEND      FOG       61  61 100 CALM      29.88F VSB<1/4
JUNEAU         FOG       60  60  99 SE5       29.88F VSB<1/4
$$

LSZ147-162-260900-
LAKE SUPERIOR

STATION/POSITION TIME  TEMP    WIND        PRES    WAVE
                       AIR SEA DIR/SP/G            HT/PER
                 (UTC) (F)     (DEG/KT/KT) (MB)    (FT/S)
W MID LAKE BUOY  0750   40 38   30/ 10/ 12 1010.2F   2/ 4
DEVILS ISLAND    0800   42      10/  6/  7 1011.0F
SAXON HARBOR     0700   46     240/  1/  2 1010.2F
$$

LMZ867-665-643>646-260900-
LAKE MICHIGAN

STATION/POSITION TIME  TEMP    WIND        PRES    WAVE
                       AIR SEA DIR/SP/G            HT/PER
                 (UTC) (F)     (DEG/KT/KT) (MB)    (FT/S)
CHAMBERS ISLAND  0740   60     170/  2/  8 1010.8S
N MID LAKE BUOY  0750   51 45  160/  8/ 10 1011.5F   1
NORTHPORT PIER   0700   53     150/  7/ 10 1011.5S
SISTER BAY       0704   57     170/  8/ 10   N/A
ALGOMA LAKESHORE 0702             CALM       N/A
KEWAUNEE LAKESHO 0700   51      70/  3/  4 1011.0S
SHEBOYGAN LAKESH 0800   52     170/  9/ 10 1012.0F
PORT WASHINGTON  0700   53      30/  3/  3 1013.2S
S MID LAKE BUOY  0750   54 49  150/ 10/ 12 1012.5F   1
KENOSHA   LAKESH 0800   57     180/ 10/ 15 1012.2F
$$

TC  - TEMPERATURE IN CELSIUS
VSB - VISIBILITY IN STATUTE MILES
WCI - WIND CHILL INDEX
HX  - HEAT INDEX





USA.gov is the U.S. government's official web portal to all federal, state and local government web resources and services.